Location: Acheville
(50.3840°N, 2.8827°E)
Time: 11:35:53
(UTC+00:00)

SL-16 R/B - Pass Details

Date: 24 October 2021
Orbit: 842 x 846 km, 71.0° (Epoch: 05 December)

Event Time Altitude Azimuth Distance (km) Brightness Sun altitude
Rises 19:36:48 0° 243° (WSW) 3,396 6.0 -28.8°
Reaches altitude 10° 19:39:32 10° 254° (WSW) 2,465 5.3 -29.3°
Maximum altitude 19:44:30 31° 315° (NW) 1,461 3.9 -30.0°
Drops below altitude 10° 19:49:30 10° 17° (NNE) 2,478 4.6 -30.8°
Enters shadow 19:49:33 10° 17° (NNE) 2,495 4.7 -30.8°
